Time,TemperatureF,DewpointF,PressureIn,WindDirection,WindDirectionDegrees,WindSpeedMPH,WindSpeedGustMPH,Humidity,HourlyPrecipIn,Conditions,Clouds,dailyrainin,SoftwareType,DateUTC
2013-02-21 00:00:00,48.3,46.4,30.07,ENE,61,0.0,0.0,93,0.00,,---,0.00,VWS V14.01,2013-02-21 05:00:00,
2013-02-21 00:01:00,48.3,46.4,30.07,ENE,61,0.0,0.0,93,0.00,,---,0.00,VWS V14.01,2013-02-21 05:01:00,
2013-02-21 00:02:00,48.3,46.4,30.07,ENE,61,0.0,0.0,93,0.00,,---,0.00,VWS V14.01,2013-02-21 05:02:00,
2013-02-21 00:03:00,48.2,46.3,30.06,ENE,61,0.0,0.0,93,0.00,,---,0.00,VWS V14.01,2013-02-21 05:03:00,
2013-02-21 00:04:00,48.2,46.6,30.06,ENE,61,0.0,0.0,94,0.00,,---,0.00,VWS V14.01,2013-02-21 05:04:00,
2013-02-21 00:05:00,48.2,46.6,30.06,ENE,61,0.0,0.0,94,0.00,,---,0.00,VWS V14.01,2013-02-21 05:05:00,
2013-02-21 00:06:00,49.4,47.5,30.07,ENE,61,0.0,0.0,93,0.00,,---,0.00,VWS V14.01,2013-02-21 05:06:00,
2013-02-21 00:07:00,48.2,46.6,30.06,ENE,61,0.0,0.0,94,0.00,,---,0.00,VWS V14.01,2013-02-21 05:07:00,
2013-02-21 00:08:00,48.1,46.5,30.06,ENE,61,0.0,0.0,94,0.00,,---,0.00,VWS V14.01,2013-02-21 05:08:00,
2013-02-21 00:09:00,48.1,46.5,30.06,ENE,61,0.0,0.0,94,0.00,,---,0.00,VWS V14.01,2013-02-21 05:09:00,
2013-02-21 00:10:00,48.1,46.5,30.07,ENE,61,0.0,0.0,94,0.00,,---,0.00,VWS V14.01,2013-02-21 05:10:00,
2013-02-21 00:11:00,49.6,48.0,30.07,ENE,61,0.0,0.0,94,0.00,,---,0.00,VWS V14.01,2013-02-21 05:11:00,
2013-02-21 00:12:00,48.1,46.5,30.07,ENE,61,0.0,0.0,94,0.00,,---,0.00,VWS V14.01,2013-02-21 05:12:00,
2013-02-21 00:13:00,48.1,46.5,30.06,ENE,61,0.0,0.0,94,0.00,,---,0.00,VWS V14.01,2013-02-21 05:13:00,
2013-02-21 00:16:00,49.6,47.7,30.07,ENE,61,0.0,0.0,93,0.00,,---,0.00,VWS V14.01,2013-02-21 05:16:00,
2013-02-21 00:21:00,49.5,47.6,30.07,ENE,61,0.0,0.0,93,0.00,,---,0.00,VWS V14.01,2013-02-21 05:21:00,
2013-02-21 00:26:00,49.5,47.6,30.07,ENE,61,0.0,0.0,93,0.00,,---,0.00,VWS V14.01,2013-02-21 05:26:00,
2013-02-21 00:30:00,47.9,46.3,30.07,ENE,61,0.0,1.0,94,0.00,,---,0.00,VWS V14.01,2013-02-21 05:30:00,
2013-02-21 00:31:00,49.4,47.5,30.07,ENE,61,0.0,0.0,93,0.00,,---,0.00,VWS V14.01,2013-02-21 05:31:00,
2013-02-21 00:36:00,49.2,47.3,30.07,ENE,61,0.0,0.0,93,0.00,,---,0.00,VWS V14.01,2013-02-21 05:36:00,
2013-02-21 00:41:00,49.2,47.5,30.07,ENE,61,0.0,0.0,94,0.00,,---,0.00,VWS V14.01,2013-02-21 05:41:00,
2013-02-21 00:49:00,48.8,46.9,30.07,ENE,61,0.0,0.0,93,0.00,,---,0.00,VWS V14.01,2013-02-21 05:49:00,
2013-02-21 00:54:00,48.6,46.7,30.07,ENE,61,0.0,0.0,93,0.00,,---,0.00,VWS V14.01,2013-02-21 05:54:00,
2013-02-21 00:59:00,48.5,46.6,30.06,ENE,61,0.0,0.0,93,0.00,,---,0.00,VWS V14.01,2013-02-21 05:59:00,
2013-02-21 01:00:00,47.4,46.0,30.06,ENE,61,0.0,0.0,95,0.00,,---,0.00,VWS V14.01,2013-02-21 06:00:00,
2013-02-21 01:08:00,48.2,46.6,30.06,ENE,61,0.0,0.0,94,0.00,,---,0.00,VWS V14.01,2013-02-21 06:08:00,
2013-02-21 01:13:00,48.1,46.5,30.07,ENE,61,0.0,0.0,94,0.00,,---,0.00,VWS V14.01,2013-02-21 06:13:00,
2013-02-21 01:18:00,48.0,46.4,30.07,ENE,61,0.0,1.0,94,0.00,,---,0.00,VWS V14.01,2013-02-21 06:18:00,
2013-02-21 01:23:00,48.0,46.4,30.07,ENE,61,0.0,1.0,94,0.00,,---,0.00,VWS V14.01,2013-02-21 06:23:00,
2013-02-21 01:28:00,47.9,46.3,30.07,ENE,61,0.0,1.0,94,0.00,,---,0.00,VWS V14.01,2013-02-21 06:28:00,
2013-02-21 01:30:00,47.4,46.0,30.05,ENE,61,0.0,0.0,95,0.00,,---,0.00,VWS V14.01,2013-02-21 06:30:00,
2013-02-21 01:34:00,47.8,46.2,30.06,ENE,61,0.0,0.0,94,0.00,,---,0.00,VWS V14.01,2013-02-21 06:34:00,
2013-02-21 01:39:00,47.7,46.1,30.06,ENE,61,0.0,0.0,94,0.00,,---,0.00,VWS V14.01,2013-02-21 06:39:00,
2013-02-21 01:44:00,47.7,46.3,30.06,ENE,61,0.0,0.0,95,0.00,,---,0.00,VWS V14.01,2013-02-21 06:44:00,
2013-02-21 01:49:00,47.6,46.0,30.06,ENE,61,0.0,0.0,94,0.00,,---,0.00,VWS V14.01,2013-02-21 06:49:00,
2013-02-21 01:54:00,47.5,46.1,30.06,ENE,61,0.0,0.0,95,0.00,,---,0.00,VWS V14.01,2013-02-21 06:54:00,
2013-02-21 01:59:00,47.4,46.0,30.06,ENE,61,0.0,0.0,95,0.00,,---,0.00,VWS V14.01,2013-02-21 06:59:00,
2013-02-21 02:00:00,47.2,46.1,30.05,ENE,61,0.0,0.0,96,0.00,,---,0.00,VWS V14.01,2013-02-21 07:00:00,
2013-02-21 02:04:00,47.4,46.0,30.06,ENE,61,0.0,0.0,95,0.00,,---,0.00,VWS V14.01,2013-02-21 07:04:00,
2013-02-21 02:09:00,47.4,46.0,30.06,ENE,61,0.0,0.0,95,0.00,,---,0.00,VWS V14.01,2013-02-21 07:09:00,
2013-02-21 02:14:00,47.3,45.9,30.06,ENE,61,0.0,0.0,95,0.00,,---,0.00,VWS V14.01,2013-02-21 07:14:00,
2013-02-21 02:19:00,47.3,45.9,30.06,ENE,61,0.0,0.0,95,0.00,,---,0.00,VWS V14.01,2013-02-21 07:19:00,
2013-02-21 02:24:00,47.4,46.3,30.06,ENE,61,0.0,0.0,96,0.00,,---,0.00,VWS V14.01,2013-02-21 07:24:00,
2013-02-21 02:29:00,47.4,46.0,30.05,ENE,61,0.0,0.0,95,0.00,,---,0.00,VWS V14.01,2013-02-21 07:29:00,
2013-02-21 02:30:00,47.2,46.4,30.05,ENE,61,0.0,0.0,97,0.00,,---,0.00,VWS V14.01,2013-02-21 07:30:00,
2013-02-21 02:34:00,47.4,46.0,30.05,ENE,61,0.0,0.0,95,0.00,,---,0.00,VWS V14.01,2013-02-21 07:34:00,
2013-02-21 02:39:00,47.3,45.9,30.05,ENE,61,0.0,0.0,95,0.00,,---,0.00,VWS V14.01,2013-02-21 07:39:00,
2013-02-21 02:44:00,47.2,45.8,30.05,ENE,61,0.0,0.0,95,0.00,,---,0.00,VWS V14.01,2013-02-21 07:44:00,
2013-02-21 02:49:00,47.2,46.1,30.05,ENE,61,0.0,0.0,96,0.00,,---,0.00,VWS V14.01,2013-02-21 07:49:00,
2013-02-21 02:55:00,47.3,46.2,30.05,ENE,61,0.0,0.0,96,0.00,,---,0.00,VWS V14.01,2013-02-21 07:55:00,
2013-02-21 03:00:00,47.2,46.1,30.05,ENE,61,0.0,0.0,96,0.00,,---,0.00,VWS V14.01,2013-02-21 08:00:00,
2013-02-21 03:05:00,47.2,46.1,30.05,ENE,61,0.0,0.0,96,0.00,,---,0.00,VWS V14.01,2013-02-21 08:05:00,
2013-02-21 03:10:00,47.1,46.0,30.05,ENE,61,0.0,0.0,96,0.00,,---,0.00,VWS V14.01,2013-02-21 08:10:00,
2013-02-21 03:15:00,47.1,46.0,30.05,ENE,61,0.0,0.0,96,0.00,,---,0.00,VWS V14.01,2013-02-21 08:15:00,
2013-02-21 03:20:00,47.2,46.1,30.05,ENE,61,0.0,0.0,96,0.00,,---,0.00,VWS V14.01,2013-02-21 08:20:00,
2013-02-21 03:25:00,47.2,46.1,30.05,ENE,61,0.0,0.0,96,0.00,,---,0.00,VWS V14.01,2013-02-21 08:25:00,
2013-02-21 03:30:00,47.2,46.4,30.05,ENE,61,0.0,0.0,97,0.00,,---,0.00,VWS V14.01,2013-02-21 08:30:00,
2013-02-21 03:35:00,47.4,46.6,30.05,ENE,61,0.0,0.0,97,0.00,,---,0.00,VWS V14.01,2013-02-21 08:35:00,
2013-02-21 03:40:00,47.6,46.8,30.05,ENE,61,0.0,1.0,97,0.00,,---,0.00,VWS V14.01,2013-02-21 08:40:00,
2013-02-21 03:45:00,47.7,46.9,30.05,ENE,61,0.0,1.0,97,0.00,,---,0.00,VWS V14.01,2013-02-21 08:45:00,
2013-02-21 03:50:00,47.6,46.8,30.05,ENE,61,0.0,1.0,97,0.00,,---,0.00,VWS V14.01,2013-02-21 08:50:00,
2013-02-21 03:55:00,47.6,46.8,30.05,ENE,61,0.0,1.0,97,0.00,,---,0.00,VWS V14.01,2013-02-21 08:55:00,
2013-02-21 04:00:00,47.5,46.7,30.04,ENE,61,0.0,1.0,97,0.00,,---,0.00,VWS V14.01,2013-02-21 09:00:00,
2013-02-21 04:05:00,47.4,46.3,30.04,ENE,61,0.0,0.0,96,0.00,,---,0.00,VWS V14.01,2013-02-21 09:05:00,
2013-02-21 04:10:00,47.3,46.2,30.04,ENE,61,0.0,0.0,96,0.00,,---,0.00,VWS V14.01,2013-02-21 09:10:00,
2013-02-21 04:15:00,47.3,46.5,30.04,ENE,61,0.0,0.0,97,0.00,,---,0.00,VWS V14.01,2013-02-21 09:15:00,
2013-02-21 04:20:00,47.1,46.0,30.04,ENE,61,0.0,0.0,96,0.00,,---,0.00,VWS V14.01,2013-02-21 09:20:00,
2013-02-21 04:25:00,47.0,46.2,30.04,ENE,61,0.0,0.0,97,0.00,,---,0.00,VWS V14.01,2013-02-21 09:25:00,
2013-02-21 04:30:00,47.2,46.4,30.04,ENE,61,1.0,1.0,97,0.00,,---,0.00,VWS V14.01,2013-02-21 09:30:00,
2013-02-21 04:35:00,47.4,46.6,30.04,ENE,61,0.0,0.0,97,0.00,,---,0.00,VWS V14.01,2013-02-21 09:35:00,
2013-02-21 04:40:00,47.6,47.1,30.05,ENE,61,0.0,0.0,98,0.00,,---,0.00,VWS V14.01,2013-02-21 09:40:00,
2013-02-21 04:45:00,47.5,46.7,30.05,ENE,61,0.0,0.0,97,0.00,,---,0.00,VWS V14.01,2013-02-21 09:45:00,
2013-02-21 04:50:00,47.4,46.6,30.05,ENE,61,0.0,0.0,97,0.00,,---,0.00,VWS V14.01,2013-02-21 09:50:00,
2013-02-21 04:55:00,47.4,46.6,30.06,ENE,61,0.0,0.0,97,0.00,,---,0.00,VWS V14.01,2013-02-21 09:55:00,
2013-02-21 05:00:00,47.6,47.1,30.05,ENE,61,0.0,0.0,98,0.00,,---,0.00,VWS V14.01,2013-02-21 10:00:00,
2013-02-21 05:05:00,47.8,47.3,30.05,ENE,61,0.0,0.0,98,0.00,,---,0.00,VWS V14.01,2013-02-21 10:05:00,
2013-02-21 05:11:00,48.0,47.5,30.05,ENE,61,0.0,0.0,98,0.00,,---,0.00,VWS V14.01,2013-02-21 10:11:00,
2013-02-21 05:16:00,48.1,47.6,30.05,ENE,61,0.0,1.0,98,0.00,,---,0.00,VWS V14.01,2013-02-21 10:16:00,
2013-02-21 05:21:00,48.4,47.9,30.05,ENE,61,0.0,1.0,98,0.00,,---,0.00,VWS V14.01,2013-02-21 10:21:00,
2013-02-21 05:26:00,48.7,48.2,30.05,ENE,61,0.0,1.0,98,0.00,,---,0.00,VWS V14.01,2013-02-21 10:26:00,
2013-02-21 05:30:00,50.6,50.1,30.07,ENE,61,1.0,2.0,98,0.00,,---,0.00,VWS V14.01,2013-02-21 10:30:00,
2013-02-21 05:31:00,48.7,48.2,30.05,ENE,61,0.0,1.0,98,0.00,,---,0.00,VWS V14.01,2013-02-21 10:31:00,
2013-02-21 05:36:00,48.9,48.4,30.05,ENE,61,0.0,0.0,98,0.00,,---,0.00,VWS V14.01,2013-02-21 10:36:00,
2013-02-21 05:41:00,49.1,48.6,30.05,ENE,61,0.0,0.0,98,0.00,,---,0.00,VWS V14.01,2013-02-21 10:41:00,
2013-02-21 05:46:00,49.2,48.7,30.06,ENE,61,0.0,0.0,98,0.00,,---,0.00,VWS V14.01,2013-02-21 10:46:00,
2013-02-21 05:51:00,49.3,48.8,30.06,ENE,61,0.0,0.0,98,0.00,,---,0.00,VWS V14.01,2013-02-21 10:51:00,
2013-02-21 05:56:00,49.4,48.9,30.06,ENE,61,0.0,0.0,98,0.00,,---,0.00,VWS V14.01,2013-02-21 10:56:00,
2013-02-21 06:00:00,51.0,49.9,30.08,ENE,61,0.0,3.0,96,0.00,,---,0.00,VWS V14.01,2013-02-21 11:00:00,
2013-02-21 06:01:00,49.6,49.1,30.06,ENE,61,0.0,1.0,98,0.00,,---,0.00,VWS V14.01,2013-02-21 11:01:00,
2013-02-21 06:06:00,49.7,49.2,30.06,ENE,61,0.0,0.0,98,0.00,,---,0.00,VWS V14.01,2013-02-21 11:06:00,
2013-02-21 06:11:00,49.8,49.3,30.06,ENE,61,0.0,0.0,98,0.00,,---,0.00,VWS V14.01,2013-02-21 11:11:00,
2013-02-21 06:16:00,49.9,49.4,30.06,ENE,61,0.0,0.0,98,0.00,,---,0.00,VWS V14.01,2013-02-21 11:16:00,
2013-02-21 06:21:00,50.1,49.6,30.06,ENE,61,1.0,1.0,98,0.00,,---,0.00,VWS V14.01,2013-02-21 11:21:00,
2013-02-21 06:26:00,50.4,49.9,30.07,ENE,61,0.0,1.0,98,0.00,,---,0.00,VWS V14.01,2013-02-21 11:26:00,
2013-02-21 06:30:00,52.1,50.7,30.09,ENE,61,0.0,3.0,95,0.00,,---,0.00,VWS V14.01,2013-02-21 11:30:00,
2013-02-21 06:31:00,50.6,50.1,30.07,ENE,61,0.0,2.0,98,0.00,,---,0.00,VWS V14.01,2013-02-21 11:31:00,
2013-02-21 06:36:00,50.8,50.3,30.06,ENE,61,2.0,3.0,98,0.00,,---,0.00,VWS V14.01,2013-02-21 11:36:00,
2013-02-21 06:41:00,50.9,50.4,30.06,ENE,61,3.0,3.0,98,0.00,,---,0.00,VWS V14.01,2013-02-21 11:41:00,
2013-02-21 06:46:00,51.0,50.2,30.06,ENE,61,1.0,3.0,97,0.00,,---,0.00,VWS V14.01,2013-02-21 11:46:00,
2013-02-21 06:51:00,51.0,49.9,30.07,ENE,61,1.0,3.0,96,0.00,,---,0.00,VWS V14.01,2013-02-21 11:51:00,
2013-02-21 06:56:00,51.0,49.9,30.07,ENE,61,0.0,3.0,96,0.00,,---,0.00,VWS V14.01,2013-02-21 11:56:00,
2013-02-21 07:00:00,53.9,51.3,30.09,ENE,61,0.0,2.0,91,0.00,,---,0.00,VWS V14.01,2013-02-21 12:00:00,
2013-02-21 07:01:00,50.9,49.8,30.08,ENE,61,0.0,3.0,96,0.00,,---,0.00,VWS V14.01,2013-02-21 12:01:00,
2013-02-21 07:06:00,51.0,49.9,30.07,ENE,61,0.0,1.0,96,0.00,,---,0.00,VWS V14.01,2013-02-21 12:06:00,
2013-02-21 07:11:00,51.1,50.0,30.08,ENE,61,2.0,2.0,96,0.00,,---,0.00,VWS V14.01,2013-02-21 12:11:00,
2013-02-21 07:16:00,51.3,49.9,30.08,ENE,61,2.0,3.0,95,0.00,,---,0.00,VWS V14.01,2013-02-21 12:16:00,
2013-02-21 07:21:00,51.6,50.2,30.08,ENE,61,0.0,3.0,95,0.00,,---,0.00,VWS V14.01,2013-02-21 12:21:00,
2013-02-21 07:26:00,51.9,50.5,30.08,ENE,61,0.0,3.0,95,0.00,,---,0.00,VWS V14.01,2013-02-21 12:26:00,
2013-02-21 07:30:00,56.2,52.7,30.10,ENE,61,1.0,2.0,88,0.00,,---,0.00,VWS V14.01,2013-02-21 12:30:00,
2013-02-21 07:31:00,52.1,50.7,30.09,ENE,61,0.0,3.0,95,0.00,,---,0.00,VWS V14.01,2013-02-21 12:31:00,
2013-02-21 07:36:00,52.3,50.6,30.09,ENE,61,1.0,2.0,94,0.00,,---,0.00,VWS V14.01,2013-02-21 12:36:00,
2013-02-21 07:41:00,52.6,50.6,30.09,ENE,61,1.0,2.0,93,0.00,,---,0.00,VWS V14.01,2013-02-21 12:41:00,
2013-02-21 07:46:00,52.9,50.9,30.09,ENE,61,2.0,2.0,93,0.00,,---,0.00,VWS V14.01,2013-02-21 12:46:00,
2013-02-21 07:51:00,53.3,51.0,30.09,ENE,61,1.0,2.0,92,0.00,,---,0.00,VWS V14.01,2013-02-21 12:51:00,
2013-02-21 07:56:00,53.6,51.0,30.09,ENE,61,0.0,2.0,91,0.00,,---,0.00,VWS V14.01,2013-02-21 12:56:00,
2013-02-21 08:00:00,61.1,54.5,30.11,ENE,61,3.0,4.0,79,0.00,,---,0.00,VWS V14.01,2013-02-21 13:00:00,
2013-02-21 08:01:00,53.9,51.3,30.09,ENE,61,0.0,2.0,91,0.00,,---,0.00,VWS V14.01,2013-02-21 13:01:00,
2013-02-21 08:06:00,54.1,51.5,30.10,ENE,61,0.0,0.0,91,0.00,,---,0.00,VWS V14.01,2013-02-21 13:06:00,
2013-02-21 08:11:00,54.4,51.5,30.10,ENE,61,0.0,1.0,90,0.00,,---,0.00,VWS V14.01,2013-02-21 13:11:00,
2013-02-21 08:16:00,54.7,51.8,30.10,ENE,61,0.0,2.0,90,0.00,,---,0.00,VWS V14.01,2013-02-21 13:16:00,
2013-02-21 08:22:00,55.3,52.4,30.10,ENE,61,0.0,2.0,90,0.00,,---,0.00,VWS V14.01,2013-02-21 13:22:00,
2013-02-21 08:27:00,55.7,52.5,30.10,ENE,61,1.0,2.0,89,0.00,,---,0.00,VWS V14.01,2013-02-21 13:27:00,
2013-02-21 08:30:00,66.6,57.3,30.11,East,90,1.0,8.0,72,0.00,,---,0.00,VWS V14.01,2013-02-21 13:30:00,
2013-02-21 08:32:00,56.2,52.7,30.10,ENE,61,1.0,2.0,88,0.00,,---,0.00,VWS V14.01,2013-02-21 13:32:00,
2013-02-21 08:37:00,56.9,53.4,30.10,ENE,61,1.0,2.0,88,0.00,,---,0.00,VWS V14.01,2013-02-21 13:37:00,
2013-02-21 08:42:00,57.7,53.5,30.10,ENE,61,1.0,4.0,86,0.00,,---,0.00,VWS V14.01,2013-02-21 13:42:00,
2013-02-21 08:47:00,58.5,53.7,30.11,ENE,61,1.0,4.0,84,0.00,,---,0.00,VWS V14.01,2013-02-21 13:47:00,
2013-02-21 08:52:00,59.3,54.2,30.11,ENE,61,3.0,4.0,83,0.00,,---,0.00,VWS V14.01,2013-02-21 13:52:00,
2013-02-21 08:57:00,60.2,54.7,30.11,ENE,61,2.0,4.0,82,0.00,,---,0.00,VWS V14.01,2013-02-21 13:57:00,
2013-02-21 09:00:00,70.4,57.7,30.11,ENE,70,3.0,10.0,64,0.00,,---,0.00,VWS V14.01,2013-02-21 14:00:00,
2013-02-21 09:02:00,61.3,54.7,30.11,ENE,61,3.0,5.0,79,0.00,,---,0.00,VWS V14.01,2013-02-21 14:02:00,
2013-02-21 09:07:00,62.3,55.0,30.11,ENE,57,5.0,7.0,77,0.00,,---,0.00,VWS V14.01,2013-02-21 14:07:00,
2013-02-21 09:12:00,63.3,55.6,30.11,ENE,63,7.0,7.0,76,0.00,,---,0.00,VWS V14.01,2013-02-21 14:12:00,
2013-02-21 09:17:00,64.2,55.8,30.11,ENE,63,5.0,8.0,74,0.00,,---,0.00,VWS V14.01,2013-02-21 14:17:00,
2013-02-21 09:22:00,64.7,55.9,30.11,East,87,2.0,8.0,73,0.00,,---,0.00,VWS V14.01,2013-02-21 14:22:00,
2013-02-21 09:27:00,65.4,56.9,30.11,ENE,59,2.0,8.0,74,0.00,,---,0.00,VWS V14.01,2013-02-21 14:27:00,
2013-02-21 09:30:00,72.3,59.5,30.11,East,98,5.0,10.0,64,0.00,,---,0.00,VWS V14.01,2013-02-21 14:30:00,
2013-02-21 09:33:00,66.8,57.5,30.11,East,87,6.0,6.0,72,0.00,,---,0.00,VWS V14.01,2013-02-21 14:33:00,
2013-02-21 09:38:00,67.8,57.3,30.11,East,88,2.0,6.0,69,0.00,,---,0.00,VWS V14.01,2013-02-21 14:38:00,
2013-02-21 09:43:00,68.4,57.4,30.11,ESE,102,1.0,6.0,68,0.00,,---,0.00,VWS V14.01,2013-02-21 14:43:00,
2013-02-21 09:48:00,68.9,57.5,30.11,East,101,3.0,7.0,67,0.00,,---,0.00,VWS V14.01,2013-02-21 14:48:00,
2013-02-21 09:53:00,69.5,58.1,30.11,ESE,103,4.0,7.0,67,0.00,,---,0.00,VWS V14.01,2013-02-21 14:53:00,
2013-02-21 09:58:00,70.1,57.8,30.11,East,89,2.0,9.0,65,0.00,,---,0.00,VWS V14.01,2013-02-21 14:58:00,
2013-02-21 10:00:00,74.1,61.6,30.10,East,98,2.0,7.0,65,0.00,,---,0.00,VWS V14.01,2013-02-21 15:00:00,
2013-02-21 10:03:00,70.4,58.1,30.11,East,82,2.0,5.0,65,0.00,,---,0.00,VWS V14.01,2013-02-21 15:03:00,
2013-02-21 10:08:00,70.4,57.7,30.11,ENE,67,5.0,10.0,64,0.00,,---,0.00,VWS V14.01,2013-02-21 15:08:00,
2013-02-21 10:13:00,70.7,58.4,30.11,ESE,109,1.0,10.0,65,0.00,,---,0.00,VWS V14.01,2013-02-21 15:13:00,
2013-02-21 10:18:00,71.2,59.3,30.11,East,98,5.0,10.0,66,0.00,,---,0.00,VWS V14.01,2013-02-21 15:18:00,
2013-02-21 10:23:00,71.5,59.1,30.11,ENE,78,3.0,10.0,65,0.00,,---,0.00,VWS V14.01,2013-02-21 15:23:00,
2013-02-21 10:28:00,71.9,59.5,30.11,East,88,2.0,10.0,65,0.00,,---,0.00,VWS V14.01,2013-02-21 15:28:00,
2013-02-21 10:30:00,75.8,62.3,30.09,SE,139,3.0,5.0,63,0.00,,---,0.00,VWS V14.01,2013-02-21 15:30:00,
2013-02-21 10:33:00,72.5,59.6,30.11,East,92,2.0,5.0,64,0.00,,---,0.00,VWS V14.01,2013-02-21 15:33:00,
2013-02-21 10:38:00,72.9,60.5,30.10,ESE,107,3.0,5.0,65,0.00,,---,0.00,VWS V14.01,2013-02-21 15:38:00,
2013-02-21 10:43:00,73.3,59.5,30.10,South,177,4.0,7.0,62,0.00,,---,0.00,VWS V14.01,2013-02-21 15:43:00,
2013-02-21 10:48:00,73.1,60.2,30.11,South,171,3.0,7.0,64,0.00,,---,0.00,VWS V14.01,2013-02-21 15:48:00,
2013-02-21 10:53:00,73.3,60.8,30.10,SSE,153,2.0,7.0,65,0.00,,---,0.00,VWS V14.01,2013-02-21 15:53:00,
2013-02-21 10:58:00,73.8,60.9,30.10,SSE,156,6.0,7.0,64,0.00,,---,0.00,VWS V14.01,2013-02-21 15:58:00,
2013-02-21 11:00:00,76.5,64.3,30.08,SE,132,2.0,5.0,66,0.00,,---,0.00,VWS V14.01,2013-02-21 16:00:00,
2013-02-21 11:03:00,74.4,61.4,30.10,ESE,112,3.0,4.0,64,0.00,,---,0.00,VWS V14.01,2013-02-21 16:03:00,
2013-02-21 11:08:00,74.9,61.9,30.10,SSE,157,5.0,5.0,64,0.00,,---,0.00,VWS V14.01,2013-02-21 16:08:00,
2013-02-21 11:13:00,75.2,62.2,30.10,ESE,117,1.0,5.0,64,0.00,,---,0.00,VWS V14.01,2013-02-21 16:13:00,
2013-02-21 11:18:00,75.5,62.5,30.10,ESE,119,2.0,5.0,64,0.00,,---,0.00,VWS V14.01,2013-02-21 16:18:00,
2013-02-21 11:23:00,75.6,62.1,30.09,SSE,159,4.0,5.0,63,0.00,,---,0.00,VWS V14.01,2013-02-21 16:23:00,
2013-02-21 11:28:00,75.7,62.7,30.09,ESE,122,3.0,5.0,64,0.00,,---,0.00,VWS V14.01,2013-02-21 16:28:00,
2013-02-21 11:30:00,77.5,64.4,30.07,SE,139,3.0,5.0,64,0.00,,---,0.00,VWS V14.01,2013-02-21 16:30:00,
2013-02-21 11:33:00,75.8,63.2,30.09,SE,125,1.0,5.0,65,0.00,,---,0.00,VWS V14.01,2013-02-21 16:33:00,
2013-02-21 11:39:00,76.2,63.1,30.09,SSE,149,3.0,5.0,64,0.00,,---,0.00,VWS V14.01,2013-02-21 16:39:00,
2013-02-21 11:44:00,76.3,63.2,30.09,SE,140,2.0,5.0,64,0.00,,---,0.00,VWS V14.01,2013-02-21 16:44:00,
2013-02-21 11:49:00,76.5,63.9,30.09,SE,136,4.0,5.0,65,0.00,,---,0.00,VWS V14.01,2013-02-21 16:49:00,
2013-02-21 11:54:00,76.8,63.7,30.09,SSE,163,1.0,5.0,64,0.00,,---,0.00,VWS V14.01,2013-02-21 16:54:00,
2013-02-21 11:59:00,76.5,63.9,30.08,SSE,155,1.0,5.0,65,0.00,,---,0.00,VWS V14.01,2013-02-21 16:59:00,
2013-02-21 12:00:00,78.6,65.0,30.06,SE,134,3.0,7.0,63,0.00,,---,0.00,VWS V14.01,2013-02-21 17:00:00,
2013-02-21 12:04:00,76.6,64.0,30.08,SSE,165,5.0,5.0,65,0.00,,---,0.00,VWS V14.01,2013-02-21 17:04:00,
2013-02-21 12:09:00,76.3,63.7,30.08,SE,132,2.0,5.0,65,0.00,,---,0.00,VWS V14.01,2013-02-21 17:09:00,
2013-02-21 12:14:00,76.4,63.8,30.08,ESE,111,4.0,5.0,65,0.00,,---,0.00,VWS V14.01,2013-02-21 17:14:00,
2013-02-21 12:19:00,76.7,63.6,30.07,SSE,159,2.0,5.0,64,0.00,,---,0.00,VWS V14.01,2013-02-21 17:19:00,
2013-02-21 12:24:00,76.9,64.2,30.07,SE,134,2.0,5.0,65,0.00,,---,0.00,VWS V14.01,2013-02-21 17:24:00,
2013-02-21 12:29:00,77.4,63.8,30.07,SSE,153,4.0,5.0,63,0.00,,---,0.00,VWS V14.01,2013-02-21 17:29:00,
2013-02-21 12:30:00,79.2,64.6,30.04,SE,124,4.0,7.0,61,0.00,,---,0.00,VWS V14.01,2013-02-21 17:30:00,
2013-02-21 12:34:00,77.7,64.1,30.06,SSE,166,3.0,6.0,63,0.00,,---,0.00,VWS V14.01,2013-02-21 17:34:00,
2013-02-21 12:39:00,77.6,64.5,30.06,ESE,114,7.0,7.0,64,0.00,,---,0.00,VWS V14.01,2013-02-21 17:39:00,
2013-02-21 12:44:00,78.0,64.4,30.06,SE,143,3.0,7.0,63,0.00,,---,0.00,VWS V14.01,2013-02-21 17:44:00,
2013-02-21 12:49:00,78.3,64.7,30.06,SSE,161,4.0,7.0,63,0.00,,---,0.00,VWS V14.01,2013-02-21 17:49:00,
2013-02-21 12:54:00,78.6,65.0,30.06,SE,134,1.0,7.0,63,0.00,,---,0.00,VWS V14.01,2013-02-21 17:54:00,
2013-02-21 12:59:00,78.6,64.5,30.05,SE,145,4.0,7.0,62,0.00,,---,0.00,VWS V14.01,2013-02-21 17:59:00,
2013-02-21 13:00:00,79.6,63.5,30.02,SSE,158,3.0,8.0,58,0.00,,---,0.00,VWS V14.01,2013-02-21 18:00:00,
2013-02-21 13:04:00,78.6,64.5,30.05,ESE,111,2.0,5.0,62,0.00,,---,0.00,VWS V14.01,2013-02-21 18:04:00,
2013-02-21 13:09:00,78.8,64.7,30.05,SE,132,1.0,5.0,62,0.00,,---,0.00,VWS V14.01,2013-02-21 18:09:00,
2013-02-21 13:14:00,79.1,65.0,30.05,SSE,158,3.0,6.0,62,0.00,,---,0.00,VWS V14.01,2013-02-21 18:14:00,
2013-02-21 13:19:00,78.7,63.7,30.05,South,174,6.0,7.0,60,0.00,,---,0.00,VWS V14.01,2013-02-21 18:19:00,
2013-02-21 13:25:00,78.7,64.1,30.04,SE,146,3.0,7.0,61,0.00,,---,0.00,VWS V14.01,2013-02-21 18:25:00,
2013-02-21 13:30:00,79.1,65.0,30.04,SE,134,5.0,7.0,62,0.00,,---,0.00,VWS V14.01,2013-02-21 18:30:00,
2013-02-21 13:35:00,79.3,64.7,30.03,ESE,119,3.0,7.0,61,0.00,,---,0.00,VWS V14.01,2013-02-21 18:35:00,
2013-02-21 13:40:00,79.5,64.4,30.03,SE,146,3.0,7.0,60,0.00,,---,0.00,VWS V14.01,2013-02-21 18:40:00,
2013-02-21 13:45:00,79.6,64.0,30.03,SSE,163,3.0,7.0,59,0.00,,---,0.00,VWS V14.01,2013-02-21 18:45:00,
2013-02-21 13:50:00,80.0,63.4,30.03,SE,127,3.0,7.0,57,0.00,,---,0.00,VWS V14.01,2013-02-21 18:50:00,
2013-02-21 14:00:00,81.2,63.5,30.00,SE,135,3.0,8.0,55,0.00,,---,0.00,VWS V14.01,2013-02-21 19:00:00,
2013-02-21 14:30:00,80.8,64.2,29.99,SE,135,2.0,7.0,57,0.00,,---,0.00,VWS V14.01,2013-02-21 19:30:00,
2013-02-21 15:00:00,80.2,63.1,29.99,SE,135,3.0,6.0,56,0.00,,---,0.00,VWS V14.01,2013-02-21 20:00:00,
2013-02-21 15:30:00,80.8,64.7,29.98,SSE,158,2.0,7.0,58,0.00,,---,0.00,VWS V14.01,2013-02-21 20:30:00,
2013-02-21 16:00:00,80.0,63.4,29.98,SE,135,2.0,5.0,57,0.00,,---,0.00,VWS V14.01,2013-02-21 21:00:00,
2013-02-21 16:30:00,80.0,62.9,29.98,SE,135,1.0,4.0,56,0.00,,---,0.00,VWS V14.01,2013-02-21 21:30:00,
2013-02-21 17:00:00,77.7,65.9,29.99,East,90,3.0,10.0,67,0.00,,---,0.00,VWS V14.01,2013-02-21 22:00:00,
2013-02-21 17:30:00,73.8,64.6,29.99,East,90,2.0,9.0,73,0.00,,---,0.00,VWS V14.01,2013-02-21 22:30:00,
2013-02-21 18:00:00,71.9,63.9,30.00,East,90,1.0,6.0,76,0.00,,---,0.00,VWS V14.01,2013-02-21 23:00:00,
2013-02-21 18:30:00,70.6,63.8,30.01,East,90,2.0,5.0,79,0.00,,---,0.00,VWS V14.01,2013-02-21 23:30:00,
2013-02-21 19:00:00,69.2,63.5,30.01,ENE,68,2.0,8.0,82,0.00,,---,0.00,VWS V14.01,2013-02-22 00:00:00,
2013-02-21 19:30:00,67.8,63.5,30.01,East,90,1.0,3.0,86,0.00,,---,0.00,VWS V14.01,2013-02-22 00:30:00,
2013-02-21 20:00:00,66.9,62.9,30.01,East,90,1.0,4.0,87,0.00,,---,0.00,VWS V14.01,2013-02-22 01:00:00,
2013-02-21 20:30:00,66.1,62.5,30.01,ENE,68,2.0,5.0,88,0.00,,---,0.00,VWS V14.01,2013-02-22 01:30:00,
2013-02-21 21:00:00,65.6,62.3,30.03,ENE,68,0.0,4.0,89,0.00,,---,0.00,VWS V14.01,2013-02-22 02:00:00,
2013-02-21 21:30:00,65.1,62.1,30.03,ENE,68,0.0,2.0,90,0.00,,---,0.00,VWS V14.01,2013-02-22 02:30:00,
2013-02-21 22:00:00,63.7,61.0,30.03,ENE,68,0.0,0.0,91,0.00,,---,0.00,VWS V14.01,2013-02-22 03:00:00,
2013-02-21 22:30:00,61.9,59.5,30.03,ENE,68,0.0,0.0,92,0.00,,---,0.00,VWS V14.01,2013-02-22 03:30:00,
2013-02-21 23:00:00,60.5,59.1,30.03,ENE,68,0.0,0.0,95,0.00,,---,0.00,VWS V14.01,2013-02-22 04:00:00,
2013-02-21 23:30:00,60.3,58.9,30.03,ENE,68,0.0,0.0,95,0.00,,---,0.00,VWS V14.01,2013-02-22 04:30:00,